Погода в Волочанке

Погода в Волочанке : погода сейчас, прогноз погоды и архив. Всё, что Вы хотите узнать о погоде в Волочанке!

Поиск расширенной информации на нашем сайте:

Другие новости

Новости СМИ2

Главная страница сайта

Новости сайта

02.10.2013

Напоминаем, что на нашем новом сайте вы можете получить высокодетализированные прогнозы погоды по пунктам России, СНГ и мира (включающие важные для авиации метеовеличины, такие как направление и скорость ветра, видимость, явления погоды, количество и форма облачности, нижняя и верхняя граница облачности), а также ознакомиться с разнообразными материалами по авиационной метеорологии и подборкой полезных ссылок на эту тему.

Сайт Метеоцентр.Азия посвящён разработке технологий оптимизации авиаметеорологического обслуживания, включая проектирование и перспективное создание нескольких автоматизированных авиаметеорологических систем:
- система выпуска высокодетальных прогностических карт явлений погоды для нижнего воздушного пространства по России и ближнему зарубежью;
- система верификации прогнозов TAF (выпускаемых синоптиками официальных АМСГ РФ и ближнего зарубежья) и AUTOTAF (выпускаемых сайтом Метеоцентр.Азия) - выявление ошибок, онлайн-сопоставление с фактической погодой METAR, автоматическое внесение коррективов в прогнозы при резком отклонении фактической погоды от прогноза, подсчёт оправдываемости прогнозов по элементам и в целом;
- система обработки, анализа и отображения авиаметеорологической информации для применения провайдерами метеорологической информации.


Погода в Волочанке - сегодня

Время (UTC), дата Ветер
(°,м/с) 
Видим.   Явления Облачность Т
(°С)
Тd
(°С)
f(%) Тe
(°С)
Pmin
(гПа)
dP
(гПа)
Po
(мм)
O2
(г/м3)
Тmin Tmax R s Состояние
почвы
09 26.04.17 070 (В) 10 км    10/4 2000 м средняя, верхняя 
[Ac As|Cs]
+1.5 -5.1 61 1007.2  -1.7  752  302           
12 26.04.17 320 (СЗ) 10 км    10/8 2000 м средняя, верхняя 
[Ac As|Cs]
-0.1 -5.7 66 -3  1007.2  752  304    +1.7  0.0     
15 26.04.17 320 (СЗ) 4000 м  дымка  10/10 2000 м 
[Ns]
-3.7 -6.6 80 -7  1008.9  1.7  753  308           
18 26.04.17 270 (З) 4000 м  слаб. снег  10/10 2000 м 
[Ns]
-3.9 -5.8 87 -7  1010.8  1.8  754  309           
21 26.04.17 250 (З) 8-10{12}  4000 м  слаб. снег  10/8 600 м средняя 
[Sc|As op]
-9.3 -12.3 79 -16  1013.9  756  317           
00 27.04.17 260 (З) 8-11{12}  4000 м  слаб. снег  10/9 600 м средняя 
[Sc|Ac As]
-11.5 -15 75 -18  1016.3  2.4  758  320  -11.6    0.8  39  неравномерный
сухой снег
100% 
03 27.04.17 250 (З) 6{11}  10 км  позёмок{снег}  6/4 600 м средняя, верхняя 
[Sc|Ac As|Ci]
-11.3 -15.7 70 -17  1018.1  1.8  760  321  -12.2         
06 27.04.17 260 (З) 10 км  позёмок{снег}  10/5 600 м средняя, верхняя 
[Sc|Ac As|Cs]
-8.9 -13.8 68 -14  1018.7  0.6  760  318           
09 27.04.17 240 (ЮЗ) 10 км  позёмок  8/6 600 м верхняя 
[Sc|Cs]
-6.3 -11.7 65 -11  1018.4  -0.2  760  315           
12 27.04.17 230 (ЮЗ) 10 км    8/8 600 м верхняя 
[Sc|Ci]
-8.4 -13.1 69 -12  1019.4  0.9  761  317    -6.1  0.0     
15 27.04.17 260 (З) 10 км    10/10 600 м 
[Sc]
-9.6 -13.7 72 -11  1017.8  759  318           
18 27.04.17 230 (ЮЗ) 10 км    9/9 600 м 
[Sc]
-11 -13.8 80 -14  1016.8  -1  759  320           
00 28.04.17 260 (З) 4000 м  слаб. снег  10/10 600 м 
[Sc]
-11.6 -13.6 85 -18  1017.3  1.1  759  321  -13.9    0.2  39  неравномерный
сухой снег
100% 
03 28.04.17 280 (З) 10 км  {снег}  10/10 600 м 
[Sc]
-10.4 -14.8 70 -14  1018  0.7  760  319           
06 28.04.17 250 (З) 10 км  {снег}  10/3 600 м средняя 
[Cu Sc|Ac As]
-8.3 -16.5 52 -10  1018.9  0.9  760  317           
09 28.04.17 190 (Ю) 10 км    10/5 600 м средняя 
[Sc|Ac As]
-7.1 -14.6 55 -9  1018.6  -0.2  760  316           
12 28.04.17 120 (ЮВ) 20000 м    10/3 600 м средняя 
[Sc|Ac As]
-7.8 -15.1 56 -9  1018  -0.7  760  316    -6.1  0.0     
15 28.04.17 090 (В) 10 км    9/5 600 м средняя 
[Sc|Ac As]
-12 -18.2 60 -14  1015.9  -2.1  758  321           
18 28.04.17 070 (В) 10 км    10/6 600 м средняя, верхняя 
[Sc|Ac As|Cs]
-13 -18.2 65 -16  1013.8  -2.2  756  321           
21 28.04.17 070 (В) 10 км  позёмок  8/3 600 м средняя, верхняя 
[Sc|Ac As|Cs]
-13.3 -18.5 65 -19  1011.3  -2.5  754  321           
00 29.04.17 070 (В) 8{11}  10 км    8/3 2000 м средняя, верхняя 
[Ac As|Cs]
-11.3 -18.6 55 -18  1008.9  -2.2  753  318  -13.8      38  неравномерный
сухой снег
100% 
03 29.04.17 050 (СВ) 10 км  позёмок  8/4 2000 м средняя, верхняя 
[Ac As|Cs]
-10.1 -16.4 60 -15  1006.4  -2.5  751  316           
06 29.04.17 040 (СВ) 10 км  позёмок  10/3 2000 м средняя, верхняя 
[As trans|Cs]
-9.7 -16.1 60 -14  1004.6  -1.8  750  314           
09 29.04.17 020 (С) 10 км    10/3 2000 м средняя, верхняя 
[As trans|Cs]
-8.7 -15.3 59 -12  1003.6  -1  749  313           
12 29.04.17 010 (С) 10 км  слаб. снег  10/4 2000 м средняя, верхняя 
[St|As trans|Cs]
-10.6 -15.9 65 -15  1004.2  0.6  749  315    -8.4  0.0     
Время (UTC), дата Ветер
(°,м/с) 
Видим.   Явления Облачность Т
(°С)
Тd
(°С)
f(%) Тe
(°С)
Pmin
(гПа)
dP
(гПа)
Po
(мм)
O2
(г/м3)
Тmin Tmax R s Состояние
почвы

Для получения пояснительной информации подведите курсор к названию столбца.

ПОГОДА в Волочанке - архив

Всё, что Вы хотите узнать о погоде в Волочанке - удобно и подробно!

Выберите нужную дату (начиная с 1 января 2015* года) и нажмите кнопку "Найти".
Будут отображены архивные сводки погоды по пункту Волочанка, начиная с указанной даты.


Отображать данные в формате CSV (для использования в таблицах Excel)


Внимание! Наш архив погоды предназначен исключительно для личного некоммерческого использования в познавательных целях. Если Вам необходимы официальные справки о состоянии погоды (для производственных, юридических, коммерческих и т.п. целей), обращайтесь в органы Росгидромета.

*Примечание: данная дата относится к архиву по метеостанциям СССР (Россия, СНГ, Балтия).
Архив по метеостанциям Зарубежной Европы и Азии (кроме Китая) хранится 10 дней, по другим регионам земного шара (Китай, Африка, Америка, Австралия, Океания) - 1 день.

Волочанка - район местоположения метеостанции


Название, широта, долгота, высота метеостанции:
Волочанка 71°ш. 94.6°д. 37 м над ур. моря [Российская Федерация]

Дополнительная информация

В oтличие oт бoльшинства пoгoдных сайтoв мы публикуем пoдрoбную метеoинфoрмацию в детальнoм прoфессиoнальнoм фoрмате.

Характеристики температуры и влажнoсти вoздуха измеряются на высoте 2 м в тени вдали oт зданий и деревьев.
Скoрoсть ветра измеряется на высoте 10 м (на урoвне рoста челoвека скoрoсть ветра ниже в 1.5-2 раза). Если метеoстанция нахoдится в гoрoде или в лесу, тo скoрoсть ветра занижена на 2-4 м/с пo сравнению с oткрытым местoм. Скoрoсть ветра над акватoриями крупных рек и oзёр, а также на вершинах хoлмoв на 2-5 м/с выше, чем в oбычных услoвиях.
Атмoсфернoе давление в разных тoчках местнoсти мoжет значительнo oтличаться oт давления на метеoстанции, в зависимoсти oт услoвий рельефа (при пoдъёме на 10 м давление пoнижается примернo на 1 мм рт.ст.).